Regional Weather Roundup
Issued by NWS Little Rock, AR

Home | Current Version | Previous Version | Text Only | Print | Product List | Glossary Off
Versions: 1 2 3 4 5 6 7 8 9 10 11 12 13 14 15 16 17 18 19 20 21 22 23 24 25 26 27 28 29 30 31 32

000
ASUS44 KLZK 070005
RWRLZK

WEATHER ROUNDUP FOR ARKANSAS
NATIONAL WEATHER SERVICE LITTLE ROCK AR
600 PM CST TUE DEC 06 2016

NOTE: "FAIR" INDICATES FEW OR NO CLOUDS BELOW 12,000 FEET WITH NO
SIGNIFICANT WEATHER AND/OR OBSTRUCTIONS TO VISIBILITY.

ARZ001-003-010-029-070100-
NORTHWEST ARKANSAS

CITY           SKY/WX    TMP DP  RH WIND       PRES   REMARKS
FAYETTEVILLE   MOCLDY    39  27  62 CALM      30.07R
6HR MIN TEMP:  39; 6HR MAX TEMP:  45;

FORT SMITH     PTCLDY    46  35  65 NW8       30.06R
6HR MIN TEMP:  46; 6HR MAX TEMP:  51;

HARRISON       PTCLDY    38  33  82 NW3       30.05R
6HR MIN TEMP:  38; 6HR MAX TEMP:  44;

BENTONVILLE    CLOUDY    37  19  48 N7        30.08R
6HR MIN TEMP:  37; 6HR MAX TEMP:  45;

ROGERS         CLOUDY    37  24  59 N3        30.08R
6HR MIN TEMP:  37; 6HR MAX TEMP:  43;

SILOAM SPGS    CLOUDY    37  25  60 N6        30.08R
6HR MIN TEMP:  37; 6HR MAX TEMP:  45;

HIGHFILL       CLOUDY    37  26  64 N6        30.07R
6HR MIN TEMP:  37; 6HR MAX TEMP:  46;

SPRINGDALE     PTCLDY    39  27  60 N7        30.08R
$$

ARZ004-005-016-070100-
NORTH CENTRAL ARKANSAS

CITY           SKY/WX    TMP DP  RH WIND       PRES   REMARKS
BATESVILLE     CLOUDY    43  36  75 NW6       30.06R
6HR MIN TEMP:  43; 6HR MAX TEMP:  54;

FLIPPIN        CLOUDY    43  32  65 CALM      30.03R
6HR MIN TEMP:  43; 6HR MAX TEMP:  45;

MTN HOME       CLOUDY    40  34  79 N3        30.05R
6HR MIN TEMP:  40; 6HR MAX TEMP:  44;

$$

ARZ040-041-070100-
WEST CENTRAL ARKANSAS

CITY           SKY/WX    TMP DP  RH WIND       PRES   REMARKS
MENA           PTCLDY    46  45  93 CALM      30.03R
MOUNT IDA      CLEAR     45  41  86 CALM      29.99R
6HR MIN TEMP:  45; 6HR MAX TEMP:  54;

$$

ARZ009-017-025-026-028-070100-
NORTHEAST ARKANSAS

CITY           SKY/WX    TMP DP  RH WIND       PRES   REMARKS
CORNING        MOCLDY    41  37  87 NW14      30.05R
JONESBORO      PTCLDY    46  39  76 NW10      30.02R
6HR MIN TEMP:  46; 6HR MAX TEMP:  56;

NEWPORT        MOCLDY    45  39  79 NW12      30.04
6HR MIN TEMP:  45; 6HR MAX TEMP:  57;

WALNUT RIDGE   CLOUDY    43  34  70 NW14      30.04R
6HR MIN TEMP:  43; 6HR MAX TEMP:  55;

BLYTHEVILLE    CLEAR     45  41  86 NE8       30.02R
6HR MIN TEMP:  45; 6HR MAX TEMP:  58;

$$

ARZ022-023-033-042-044-070100-
CENTRAL ARKANSAS

CITY           SKY/WX    TMP DP  RH WIND       PRES   REMARKS
LITTLE ROCK    PTCLDY    47  40  76 NW7       30.03R
6HR MIN TEMP:  47; 6HR MAX TEMP:  56;

N LITTLE ROCK    N/A     46  40  81 CALM      30.04R
6HR MIN TEMP:  46; 6HR MAX TEMP:  53;

SEARCY         CLEAR     47  40  76 N6        30.05R
6HR MIN TEMP:  47; 6HR MAX TEMP:  56;

HOT SPRINGS    CLEAR     47  42  83 NE3       30.01R
6HR MIN TEMP:  47; 6HR MAX TEMP:  56;

RUSSELLVILLE   PTCLDY    45  38  76 NE7       30.03R
6HR MIN TEMP:  45; 6HR MAX TEMP:  55;

CLINTON        CLOUDY    45  37  76 NW6       30.05R
$$

ARZ036-070100-
EAST ARKANSAS

CITY           SKY/WX    TMP DP  RH WIND       PRES   REMARKS
WEST MEMPHIS   CLEAR     46  42  86 S3        30.00R
6HR MIN TEMP:  45; 6HR MAX TEMP:  53;

$$

ARZ050-053-066-070-073-070100-
SOUTHWEST ARKANSAS

CITY           SKY/WX    TMP DP  RH WIND       PRES   REMARKS
ARKADELPHIA    FAIR      45  45 100 CALM      30.03R
6HR MIN TEMP:  45; 6HR MAX TEMP:  52;

CAMDEN         CLOUDY    50  43  76 CALM      30.02S
TEXARKANA      CLOUDY    49  46  90 CALM      30.02R
6HR MIN TEMP:  49; 6HR MAX TEMP:  54;

EL DORADO      CLOUDY    49  48  97 N6        30.01S
6HR MIN TEMP:  49; 6HR MAX TEMP:  53;

DE QUEEN       CLOUDY    52  45  77 CALM      30.01R
6HR MIN TEMP:  52; 6HR MAX TEMP:  56;

$$

ARZ056-057-069-070100-
SOUTHEAST ARKANSAS

CITY           SKY/WX    TMP DP  RH WIND       PRES   REMARKS
PINE BLUFF     CLEAR     47  42  83 CALM      30.02R
6HR MIN TEMP:  47; 6HR MAX TEMP:  54;

STUTTGART      PTCLDY    46  39  76 NW7       30.03R
6HR MIN TEMP:  46; 6HR MAX TEMP:  55;

MONTICELLO     PTCLDY    47  45  93 CALM      30.02S
6HR MIN TEMP:  47; 6HR MAX TEMP:  54;


$$






USA.gov is the U.S. government's official web portal to all federal, state and local government web resources and services.